ラーソン彗星

250P/Larson (2010)

English version
Home page
Updated on July 12, 2021

---------------------------------------------------------------------

・ プロフィール

符号 250P/2011 A1
発見日 2011年1月10日
発見光度 19.0等
発見者 S. M. Larson (Catalina)

・ 写真集

・ 軌道要素

Epoch 2010 Nov. 20.0 TT = JDT 2455520.5
T 2010 Nov. 14.35919 TT                                 MPC
q   2.2140278            (2000.0)            P               Q
n   0.13676469     Peri.   44.88930     -0.46123355     -0.85937801
a   3.7309554      Node    73.75615     +0.73578310     -0.50950064
e   0.4065789      Incl.   13.29322     +0.49586977     -0.04334205
P   7.21
From 237 observations 1995 Dec. 22-2011 Apr. 5, mean residual 0".6.

・ 光度変化

        m1 = 12.3 + 5 logΔ + 15 log r

---------------------------------------------------------------------

軌道要素はM.P.E.C. 2011-G90に掲載されたものです。
光度グラフはComet for Windowsで作成したものです。

---------------------------------------------------------------------

Copyright(C) Seiichi Yoshida (comet@aerith.net). All rights reserved.